カタログに戻る

CZ-3C DEB

運用中GTO
NORAD 42469·DEBRIS·🇨🇳 China

打ち上げ Oct 31, 2010 から Xichang Satellite Launch Center

Loading…

TLE

古いSource: Space-Track

元期: Sep 13, 2026, 06:00 UTC

1 42469U 10057BJ  26256.25058891  .00000015  00000-0  44362-3 0  9995
2 42469  20.4351 259.5852 7174318 154.6891 272.7375  2.32007643  1622

AllMySatでCZ-3C DEBをリアルタイム追跡

Download on the App Store